Location: Oshawa
(43.9000°N, 78.8670°W)
Time: 12:02:00
(UTC-04:00)

Iridium 54 - Visible Passes

Search period start: 21 August 2014 00:00
Search period end: 31 August 2014 00:00
Orbit: 776 x 779 km, 86.4° (Epoch: 21 August)

Date Brightness Start Highest point End Pass type
(mag) Time Alt. Az. Time Alt. Az. Time Alt. Az.
22 Aug 9.3 20:39:21 10° WNW 20:40:29 11° WNW 20:41:38 10° W visible
24 Aug 8.9 05:42:59 10° ESE 05:45:15 13° ENE 05:47:32 10° NE visible
27 Aug 8.5 05:41:38 10° ESE 05:45:08 19° ENE 05:48:38 10° NE visible
30 Aug 8.0 05:40:49 10° SE 05:45:03 26° E 05:49:18 10° NNE visible
